ENT1342 DTNH-EPWA

Flight info

Callsign ENT1342
Flight time 2h 39m
Altitude 36000
Route VAXAL UM734 SIRVI UM725 SUSIP DCT PININ DCT VAPUP/N0447F370 DCT VEBAL DCT LITKU DCT ORTEB DCT KONZI DCT LOGDA
Aircraft B38M/M-SDFGHIJ4J7RWXY/EB1

Departure

Time 2026-05-07 14:24
Airport Enfidha - Hammamet International Airport (DTNH)

Arrival

Time 2026-05-07 17:04
Airport Warsaw Chopin Airport (EPWA)
Time Latitude Longitude Altitude Speed Heading
2026-05-07 14:00 36.08235 10.44038 14 ft 0 kts 307°
2026-05-07 14:14 36.08234 10.44039 14 ft 1 kts 308°
2026-05-07 14:15 36.08225 10.44053 14 ft 2 kts 307°
2026-05-07 14:15 36.08216 10.44068 14 ft 2 kts 307°
2026-05-07 14:15 36.08207 10.44082 14 ft 2 kts 307°
2026-05-07 14:15 36.08200 10.44093 14 ft 0 kts 307°
2026-05-07 14:16 36.08193 10.44108 14 ft 2 kts 283°
2026-05-07 14:16 36.08192 10.44126 14 ft 2 kts 260°
2026-05-07 14:16 36.08197 10.44144 14 ft 2 kts 236°
2026-05-07 14:16 36.08201 10.44151 14 ft 1 kts 222°
2026-05-07 14:17 36.08205 10.44155 14 ft 0 kts 225°
2026-05-07 14:18 36.08204 10.44154 14 ft 0 kts 225°
2026-05-07 14:18 36.08181 10.44124 14 ft 8 kts 226°
2026-05-07 14:19 36.08121 10.44047 14 ft 15 kts 225°
2026-05-07 14:19 36.08049 10.43944 15 ft 14 kts 250°
2026-05-07 14:19 36.08044 10.43839 17 ft 10 kts 260°
2026-05-07 14:19 36.07993 10.43794 17 ft 10 kts 179°
2026-05-07 14:20 36.07912 10.43795 17 ft 12 kts 180°
2026-05-07 14:20 36.07820 10.43795 17 ft 14 kts 179°
2026-05-07 14:20 36.07745 10.43737 16 ft 14 kts 269°
2026-05-07 14:20 36.07747 10.43598 17 ft 18 kts 270°
2026-05-07 14:21 36.07747 10.43413 17 ft 23 kts 270°
2026-05-07 14:21 36.07748 10.43210 17 ft 22 kts 271°
2026-05-07 14:21 36.07750 10.43040 17 ft 17 kts 269°
2026-05-07 14:21 36.07750 10.42901 17 ft 15 kts 270°
2026-05-07 14:22 36.07751 10.42777 17 ft 13 kts 270°
2026-05-07 14:22 36.07751 10.42637 18 ft 19 kts 270°
2026-05-07 14:22 36.07752 10.42447 18 ft 23 kts 270°
2026-05-07 14:22 36.07753 10.42247 18 ft 21 kts 270°
2026-05-07 14:23 36.07751 10.42098 18 ft 11 kts 261°
2026-05-07 14:23 36.07702 10.42043 18 ft 9 kts 180°
2026-05-07 14:23 36.07640 10.42046 18 ft 9 kts 177°
2026-05-07 14:23 36.07580 10.42126 18 ft 21 kts 90°
2026-05-07 14:24 36.07580 10.42549 18 ft 82 kts 91°
2026-05-07 14:24 36.07576 10.43502 16 ft 140 kts 91°
2026-05-07 14:24 36.07568 10.44880 300 ft 164 kts 90°
2026-05-07 14:24 36.07587 10.46279 995 ft 169 kts 79°
2026-05-07 14:25 36.08126 10.47562 1615 ft 178 kts 41°
2026-05-07 14:25 36.09297 10.48215 1960 ft 196 kts
2026-05-07 14:25 36.10757 10.47953 2155 ft 226 kts 340°
2026-05-07 14:25 36.12234 10.47121 2575 ft 240 kts 338°
2026-05-07 14:26 36.13802 10.46303 3030 ft 253 kts 342°
2026-05-07 14:26 36.15543 10.45859 3561 ft 261 kts
2026-05-07 14:26 36.17334 10.46241 4259 ft 263 kts 15°
2026-05-07 14:26 36.19101 10.46924 4884 ft 269 kts 16°
2026-05-07 14:27 36.20938 10.47603 5505 ft 276 kts 13°
2026-05-07 14:27 36.22778 10.48212 6155 ft 279 kts 11°
2026-05-07 14:27 36.24693 10.48812 6774 ft 284 kts 10°
2026-05-07 14:27 36.26628 10.49413 7345 ft 290 kts 11°
2026-05-07 14:28 36.28592 10.50029 7968 ft 294 kts 10°
2026-05-07 14:28 36.30622 10.50660 8472 ft 303 kts
2026-05-07 14:28 36.32669 10.51290 9168 ft 303 kts
2026-05-07 14:28 36.34717 10.51923 9707 ft 309 kts
2026-05-07 14:29 36.36810 10.52569 10302 ft 313 kts
2026-05-07 14:29 36.38956 10.53229 10567 ft 329 kts
2026-05-07 14:29 36.41254 10.53933 10807 ft 345 kts
2026-05-07 14:29 36.43620 10.54660 11084 ft 358 kts
2026-05-07 14:30 36.46097 10.55425 11456 ft 368 kts
2026-05-07 14:30 36.48589 10.56204 12005 ft 371 kts
2026-05-07 14:30 36.51119 10.56994 12390 ft 380 kts
2026-05-07 14:30 36.53719 10.57800 12916 ft 383 kts
2026-05-07 14:31 36.56308 10.58603 13455 ft 385 kts
2026-05-07 14:31 36.58960 10.59430 13956 ft 389 kts
2026-05-07 14:31 36.61583 10.60253 14555 ft 389 kts
2026-05-07 14:31 36.64192 10.61070 14990 ft 393 kts
2026-05-07 14:32 36.66857 10.61901 15453 ft 397 kts
2026-05-07 14:32 36.69552 10.62742 15843 ft 403 kts
2026-05-07 14:32 36.72287 10.63595 16453 ft 401 kts
2026-05-07 14:32 36.75007 10.64449 17079 ft 399 kts
2026-05-07 14:33 36.77713 10.65298 17512 ft 403 kts
2026-05-07 14:33 36.80450 10.66155 17853 ft 408 kts
2026-05-07 14:33 36.83214 10.67020 18254 ft 411 kts
2026-05-07 14:33 36.86022 10.67897 18527 ft 418 kts
2026-05-07 14:34 36.88838 10.68778 19092 ft 416 kts
2026-05-07 14:34 36.91618 10.69649 19506 ft 418 kts
2026-05-07 14:34 36.94470 10.70542 19968 ft 419 kts
2026-05-07 14:34 36.97287 10.71427 20310 ft 422 kts
2026-05-07 14:35 37.00162 10.72332 20669 ft 425 kts
2026-05-07 14:35 37.03008 10.73226 21107 ft 425 kts
2026-05-07 14:35 37.05888 10.74133 21386 ft 430 kts
2026-05-07 14:35 37.08816 10.75057 21679 ft 434 kts
2026-05-07 14:36 37.11740 10.75982 22101 ft 434 kts
2026-05-07 14:36 37.14685 10.76918 22440 ft 437 kts
2026-05-07 14:36 37.17614 10.77847 22978 ft 432 kts
2026-05-07 14:36 37.20497 10.78766 23491 ft 429 kts
2026-05-07 14:37 37.23419 10.79692 23809 ft 432 kts
2026-05-07 14:37 37.29280 10.81555 24254 ft 441 kts
2026-05-07 14:37 37.32266 10.82502 24566 ft 443 kts
2026-05-07 14:38 37.35289 10.83462 24728 ft 449 kts
2026-05-07 14:38 37.38323 10.84425 25074 ft 450 kts
2026-05-07 14:38 37.41360 10.85525 25249 ft 458 kts 13°
2026-05-07 14:38 37.44320 10.87069 25431 ft 468 kts 23°
2026-05-07 14:39 37.47123 10.89235 25748 ft 474 kts 32°
2026-05-07 14:39 37.49725 10.91748 25867 ft 482 kts 37°
2026-05-07 14:39 37.52291 10.94505 26212 ft 483 kts 38°
2026-05-07 14:39 37.54801 10.97305 26309 ft 489 kts 39°
2026-05-07 14:40 37.57373 11.00201 26569 ft 491 kts 39°
2026-05-07 14:40 37.59911 11.03054 26773 ft 494 kts 39°
2026-05-07 14:40 37.62493 11.05943 26967 ft 497 kts 38°
2026-05-07 14:40 37.65086 11.08822 27178 ft 499 kts 38°
2026-05-07 14:41 37.67691 11.11706 27310 ft 504 kts 38°
2026-05-07 14:41 37.70306 11.14598 27583 ft 504 kts 38°
2026-05-07 14:41 37.72944 11.17501 27852 ft 505 kts 38°
2026-05-07 14:41 37.75645 11.20447 28038 ft 508 kts 37°
2026-05-07 14:42 37.78284 11.23310 28415 ft 506 kts 38°
2026-05-07 14:42 37.80956 11.26221 28607 ft 509 kts 37°
2026-05-07 14:42 37.83665 11.29199 28741 ft 514 kts 37°
2026-05-07 14:42 37.86354 11.32147 29022 ft 513 kts 37°
2026-05-07 14:43 37.89077 11.35120 29132 ft 518 kts 37°
2026-05-07 14:43 37.91860 11.38049 29296 ft 520 kts 34°
2026-05-07 14:43 37.94743 11.40778 29484 ft 520 kts 30°
2026-05-07 14:43 37.97750 11.43210 29890 ft 514 kts 25°
2026-05-07 14:44 38.00874 11.45468 30110 ft 514 kts 21°
2026-05-07 14:44 38.04019 11.47589 30370 ft 513 kts 21°
2026-05-07 14:44 38.07156 11.49618 30701 ft 512 kts 19°
2026-05-07 14:44 38.10379 11.51660 30983 ft 512 kts 20°
2026-05-07 14:45 38.13533 11.53671 31148 ft 515 kts 21°
2026-05-07 14:45 38.16758 11.55780 31456 ft 514 kts 20°
2026-05-07 14:45 38.19881 11.57865 31684 ft 516 kts 21°
2026-05-07 14:45 38.23074 11.60021 31867 ft 518 kts 21°
2026-05-07 14:46 38.26240 11.62179 32016 ft 520 kts 21°
2026-05-07 14:46 38.29444 11.64379 32180 ft 523 kts 22°
2026-05-07 14:46 38.32668 11.66604 32325 ft 525 kts 23°
2026-05-07 14:46 38.35862 11.68832 32602 ft 524 kts 23°
2026-05-07 14:47 38.39020 11.71038 32813 ft 524 kts 22°
2026-05-07 14:47 38.42234 11.73261 32959 ft 525 kts 22°
2026-05-07 14:47 38.45456 11.75496 33163 ft 526 kts 22°
2026-05-07 14:47 38.48644 11.77715 33400 ft 525 kts 22°
2026-05-07 14:48 38.51859 11.79955 33585 ft 526 kts 22°
2026-05-07 14:48 38.55080 11.82191 33803 ft 526 kts 22°
2026-05-07 14:48 38.58273 11.84404 34057 ft 525 kts 22°
2026-05-07 14:48 38.61477 11.86613 34214 ft 526 kts 21°
2026-05-07 14:49 38.64704 11.88850 34500 ft 525 kts 21°
2026-05-07 14:49 38.67887 11.91069 34828 ft 523 kts 21°
2026-05-07 14:49 38.71081 11.93290 35223 ft 519 kts 21°
2026-05-07 14:49 38.74248 11.95516 35407 ft 520 kts 21°
2026-05-07 14:50 38.77432 11.97767 35563 ft 521 kts 22°
2026-05-07 14:50 38.80589 12.00000 35824 ft 520 kts 20°
2026-05-07 14:50 38.86947 12.04487 35885 ft 523 kts 21°
2026-05-07 14:51 38.93351 12.08997 35882 ft 525 kts 21°
2026-05-07 14:51 38.99688 12.13448 35882 ft 523 kts 21°
2026-05-07 14:52 39.06081 12.17913 35880 ft 519 kts 21°
2026-05-07 14:52 39.12452 12.22416 35887 ft 521 kts 20°
2026-05-07 14:53 39.18812 12.26930 35888 ft 526 kts 20°
2026-05-07 14:53 39.25202 12.31485 35901 ft 524 kts 20°
2026-05-07 14:54 39.31543 12.36007 35894 ft 517 kts 19°
2026-05-07 14:54 39.37826 12.40480 35910 ft 516 kts 19°
2026-05-07 14:55 39.44184 12.44994 35898 ft 522 kts 19°
2026-05-07 14:55 39.50538 12.49512 35893 ft 524 kts 19°
2026-05-07 14:56 39.56895 12.54042 35905 ft 519 kts 19°
2026-05-07 14:56 39.63186 12.58577 35909 ft 516 kts 18°
2026-05-07 14:57 39.69433 12.63136 35914 ft 515 kts 18°
2026-05-07 14:57 39.75669 12.67666 35910 ft 519 kts 19°
2026-05-07 14:58 39.81998 12.72246 35918 ft 523 kts 19°
2026-05-07 14:58 39.88367 12.76858 35919 ft 522 kts 18°
2026-05-07 14:59 39.94633 12.81401 35931 ft 513 kts 18°
2026-05-07 14:59 40.00866 12.85949 35920 ft 515 kts 18°
2026-05-07 15:00 40.07148 12.90533 35933 ft 518 kts 19°
2026-05-07 15:00 40.13467 12.95179 35920 ft 519 kts 19°
2026-05-07 15:01 40.19794 12.99781 35917 ft 520 kts 19°
2026-05-07 15:01 40.26029 13.04386 35926 ft 515 kts 19°
2026-05-07 15:02 40.32212 13.08982 35929 ft 505 kts 19°
2026-05-07 15:02 40.38361 13.13492 35946 ft 513 kts 18°
2026-05-07 15:03 40.44590 13.18087 35929 ft 508 kts 19°
2026-05-07 15:03 40.50682 13.22627 35926 ft 505 kts 18°
2026-05-07 15:04 40.56798 13.27137 35935 ft 506 kts 19°
2026-05-07 15:04 40.62968 13.31710 35933 ft 505 kts 18°
2026-05-07 15:05 40.69043 13.36235 35928 ft 505 kts 19°
2026-05-07 15:05 40.75167 13.40821 35923 ft 503 kts 19°
2026-05-07 15:06 40.81243 13.45387 35935 ft 504 kts 19°
2026-05-07 15:06 40.87340 13.49966 35924 ft 501 kts 20°
2026-05-07 15:07 40.93378 13.54486 35921 ft 497 kts 19°
2026-05-07 15:07 40.99392 13.58974 35927 ft 499 kts 18°
2026-05-07 15:08 41.05363 13.63448 35912 ft 491 kts 19°
2026-05-07 15:08 41.11290 13.67956 35918 ft 498 kts 21°
2026-05-07 15:09 41.17263 13.72545 35921 ft 499 kts 21°
2026-05-07 15:09 41.23206 13.77149 35925 ft 495 kts 21°
2026-05-07 15:10 41.29222 13.81758 35930 ft 498 kts 19°
2026-05-07 15:10 41.35168 13.86298 35937 ft 491 kts 20°
2026-05-07 15:11 41.41114 13.90818 35960 ft 497 kts 20°
2026-05-07 15:11 41.47120 13.95362 35979 ft 498 kts 20°
2026-05-07 15:12 41.53074 13.99926 35998 ft 491 kts 20°
2026-05-07 15:12 41.59018 14.04493 36008 ft 492 kts 20°
2026-05-07 15:13 41.64941 14.09031 36016 ft 500 kts 20°
2026-05-07 15:13 41.70985 14.13688 36018 ft 494 kts 20°
2026-05-07 15:14 41.76859 14.18234 36025 ft 488 kts 19°
2026-05-07 15:14 41.82734 14.22801 36022 ft 488 kts 20°
2026-05-07 15:15 41.88588 14.27353 36025 ft 489 kts 20°
2026-05-07 15:15 41.94503 14.31957 36027 ft 497 kts 21°
2026-05-07 15:16 42.00431 14.36628 36015 ft 492 kts 20°
2026-05-07 15:16 42.06309 14.41223 36003 ft 488 kts 20°
2026-05-07 15:17 42.12120 14.45796 35991 ft 488 kts 21°
2026-05-07 15:17 42.17981 14.50420 35977 ft 492 kts 21°
2026-05-07 15:18 42.20976 14.52782 35720 ft 492 kts 22°
2026-05-07 15:18 42.23894 14.55087 35855 ft 485 kts 21°
2026-05-07 15:18 42.26784 14.57383 35963 ft 487 kts 21°
2026-05-07 15:18 42.29716 14.59700 35967 ft 491 kts 21°
2026-05-07 15:19 42.35611 14.64355 35971 ft 490 kts 22°
2026-05-07 15:19 42.41464 14.68991 35965 ft 485 kts 23°
2026-05-07 15:20 42.47301 14.73622 35967 ft 491 kts 23°
2026-05-07 15:20 42.53155 14.78275 35967 ft 487 kts 23°
2026-05-07 15:21 42.58992 14.82943 35967 ft 488 kts 23°
2026-05-07 15:21 42.64834 14.87627 35965 ft 486 kts 24°
2026-05-07 15:22 42.70634 14.92283 35967 ft 485 kts 24°
2026-05-07 15:22 42.76452 14.96954 35966 ft 488 kts 24°
2026-05-07 15:23 42.82272 15.01642 35965 ft 487 kts 24°
2026-05-07 15:23 42.88060 15.06320 35967 ft 484 kts 25°
2026-05-07 15:24 42.93856 15.11012 35971 ft 482 kts 25°
2026-05-07 15:24 42.99621 15.15685 35975 ft 483 kts 25°
2026-05-07 15:25 43.05389 15.20368 35980 ft 483 kts 25°
2026-05-07 15:25 43.11213 15.24742 35979 ft 477 kts 20°
2026-05-07 15:26 43.17182 15.28672 35987 ft 475 kts 19°
2026-05-07 15:26 43.23171 15.32541 35993 ft 477 kts 20°
2026-05-07 15:27 43.29151 15.36499 35993 ft 478 kts 20°
2026-05-07 15:27 43.35078 15.40498 35996 ft 477 kts 20°
2026-05-07 15:28 43.41013 15.44539 35993 ft 477 kts 20°
2026-05-07 15:28 43.46970 15.48609 36000 ft 476 kts 20°
2026-05-07 15:29 43.52861 15.52642 36003 ft 477 kts 20°
2026-05-07 15:29 43.58786 15.56707 36362 ft 475 kts 21°
2026-05-07 15:30 43.61735 15.58735 36544 ft 476 kts 20°
2026-05-07 15:30 43.64664 15.60750 36777 ft 475 kts 21°
2026-05-07 15:30 43.67606 15.62776 36957 ft 476 kts 21°
2026-05-07 15:30 43.70571 15.64819 37015 ft 478 kts 21°
2026-05-07 15:31 43.76466 15.68888 37018 ft 476 kts 21°
2026-05-07 15:31 43.82373 15.72980 37021 ft 473 kts 21°
2026-05-07 15:32 43.88200 15.77023 37027 ft 472 kts 21°
2026-05-07 15:32 43.94095 15.81120 37028 ft 474 kts 22°
2026-05-07 15:33 43.99928 15.85182 37029 ft 474 kts 21°
2026-05-07 15:33 44.05772 15.89261 37028 ft 473 kts 22°
2026-05-07 15:34 44.11570 15.93319 37022 ft 474 kts 22°
2026-05-07 15:34 44.17453 15.97443 37023 ft 475 kts 22°
2026-05-07 15:35 44.23304 16.01557 37021 ft 474 kts 22°
2026-05-07 15:35 44.29175 16.05693 37021 ft 474 kts 22°
2026-05-07 15:36 44.35081 16.09863 37019 ft 474 kts 22°
2026-05-07 15:36 44.40937 16.14008 37014 ft 474 kts 22°
2026-05-07 15:37 44.46758 16.18137 37021 ft 475 kts 22°
2026-05-07 15:37 44.52676 16.22342 37010 ft 475 kts 22°
2026-05-07 15:38 44.58536 16.26517 37011 ft 475 kts 22°
2026-05-07 15:38 44.64380 16.30690 37007 ft 475 kts 22°
2026-05-07 15:39 44.70274 16.34909 37007 ft 475 kts 22°
2026-05-07 15:39 44.76141 16.39117 37002 ft 475 kts 22°
2026-05-07 15:40 44.81988 16.43320 36999 ft 475 kts 22°
2026-05-07 15:40 44.87847 16.47543 36994 ft 476 kts 22°
2026-05-07 15:41 44.93700 16.51771 36992 ft 477 kts 22°
2026-05-07 15:41 44.99584 16.56032 36986 ft 477 kts 22°
2026-05-07 15:42 45.05500 16.60323 36981 ft 477 kts 22°
2026-05-07 15:42 45.11313 16.64551 36973 ft 477 kts 22°
2026-05-07 15:43 45.17176 16.68825 36972 ft 478 kts 23°
2026-05-07 15:43 45.23061 16.73126 36973 ft 478 kts 23°
2026-05-07 15:44 45.28994 16.77474 36971 ft 478 kts 24°
2026-05-07 15:44 45.34836 16.81762 36970 ft 479 kts 23°
2026-05-07 15:45 45.40725 16.86094 36973 ft 478 kts 24°
2026-05-07 15:45 45.46612 16.90436 36973 ft 480 kts 24°
2026-05-07 15:46 45.55429 16.96958 36975 ft 480 kts 24°
2026-05-07 15:47 45.61337 17.01341 36979 ft 480 kts 24°
2026-05-07 15:47 45.67268 17.05751 36972 ft 480 kts 24°
2026-05-07 15:48 45.73175 17.10154 36973 ft 480 kts 24°
2026-05-07 15:48 45.79068 17.14558 36979 ft 480 kts 24°
2026-05-07 15:49 45.84984 17.18990 36979 ft 481 kts 24°
2026-05-07 15:49 45.90906 17.23438 36964 ft 482 kts 24°
2026-05-07 15:50 45.96819 17.27890 36971 ft 481 kts 24°
2026-05-07 15:50 46.02606 17.32618 36970 ft 484 kts 29°
2026-05-07 15:51 46.08174 17.38040 36965 ft 486 kts 32°
2026-05-07 15:51 46.13630 17.43602 36974 ft 487 kts 32°
2026-05-07 15:52 46.19139 17.49166 36978 ft 485 kts 32°
2026-05-07 15:52 46.24688 17.54699 36981 ft 485 kts 32°
2026-05-07 15:53 46.30223 17.60188 36980 ft 487 kts 31°
2026-05-07 15:53 46.35776 17.65692 36977 ft 486 kts 32°
2026-05-07 15:54 46.41311 17.71189 36975 ft 485 kts 32°
2026-05-07 15:54 46.46838 17.76693 36978 ft 485 kts 32°
2026-05-07 15:55 46.52391 17.82239 36982 ft 486 kts 33°
2026-05-07 15:55 46.57965 17.87819 36973 ft 487 kts 33°
2026-05-07 15:56 46.63495 17.93368 36974 ft 486 kts 33°
2026-05-07 15:56 46.69048 17.98953 36975 ft 486 kts 33°
2026-05-07 15:57 46.74618 18.04571 36980 ft 486 kts 33°
2026-05-07 15:57 46.80152 18.10165 36981 ft 487 kts 33°
2026-05-07 15:58 46.85685 18.15774 36977 ft 485 kts 33°
2026-05-07 15:58 46.91218 18.21397 36976 ft 486 kts 33°
2026-05-07 15:59 46.96747 18.27031 36971 ft 487 kts 33°
2026-05-07 15:59 47.02230 18.32632 36978 ft 487 kts 33°
2026-05-07 16:00 47.07754 18.38293 36983 ft 487 kts 33°
2026-05-07 16:00 47.13165 18.43850 36979 ft 486 kts 33°
2026-05-07 16:01 47.18713 18.49559 36983 ft 486 kts 33°
2026-05-07 16:01 47.24202 18.55226 36972 ft 486 kts 33°
2026-05-07 16:02 47.29699 18.60914 36971 ft 487 kts 33°
2026-05-07 16:02 47.35177 18.66596 36975 ft 486 kts 34°
2026-05-07 16:03 47.40652 18.72289 36970 ft 485 kts 34°
2026-05-07 16:03 47.46130 18.78000 36973 ft 484 kts 34°
2026-05-07 16:04 47.51611 18.83731 36976 ft 485 kts 34°
2026-05-07 16:04 47.57093 18.89477 36973 ft 485 kts 34°
2026-05-07 16:05 47.62584 18.95248 36966 ft 487 kts 34°
2026-05-07 16:05 47.68032 19.00989 36970 ft 486 kts 34°
2026-05-07 16:06 47.73531 19.06801 36972 ft 485 kts 34°
2026-05-07 16:06 47.78953 19.12545 36961 ft 486 kts 34°
2026-05-07 16:07 47.84435 19.18367 36961 ft 485 kts 34°
2026-05-07 16:07 47.89820 19.24101 36959 ft 484 kts 34°
2026-05-07 16:08 47.95280 19.29928 36956 ft 484 kts 34°
2026-05-07 16:08 48.00690 19.35719 36959 ft 484 kts 35°
2026-05-07 16:09 48.06128 19.41556 36961 ft 484 kts 35°
2026-05-07 16:09 48.11572 19.47417 36955 ft 487 kts 34°
2026-05-07 16:10 48.17019 19.53294 36957 ft 486 kts 35°
2026-05-07 16:10 48.22590 19.58948 36959 ft 485 kts 28°
2026-05-07 16:11 48.28715 19.63197 36966 ft 482 kts 18°
2026-05-07 16:11 48.35020 19.66312 36964 ft 481 kts 15°
2026-05-07 16:12 48.41421 19.69251 36968 ft 483 kts 15°
2026-05-07 16:12 48.47776 19.72282 36969 ft 483 kts 16°
2026-05-07 16:13 48.54137 19.75437 36969 ft 481 kts 17°
2026-05-07 16:13 48.60464 19.78629 36973 ft 482 kts 17°
2026-05-07 16:14 48.66819 19.81854 36973 ft 483 kts 17°
2026-05-07 16:14 48.73163 19.85082 36976 ft 483 kts 17°
2026-05-07 16:15 48.79520 19.88326 36974 ft 483 kts 17°
2026-05-07 16:15 48.85828 19.91552 36971 ft 483 kts 17°
2026-05-07 16:16 48.92170 19.94803 36982 ft 484 kts 17°
2026-05-07 16:16 48.98521 19.98067 36977 ft 482 kts 17°
2026-05-07 16:17 49.04821 20.01314 36985 ft 482 kts 17°
2026-05-07 16:17 49.11109 20.04563 36981 ft 483 kts 17°
2026-05-07 16:18 49.17451 20.07849 36983 ft 483 kts 17°
2026-05-07 16:18 49.23773 20.11133 36974 ft 484 kts 17°
2026-05-07 16:19 49.30136 20.14447 36975 ft 483 kts 17°
2026-05-07 16:19 49.36446 20.17744 36967 ft 482 kts 17°
2026-05-07 16:20 49.42785 20.21064 36955 ft 484 kts 17°
2026-05-07 16:20 49.49139 20.24401 36943 ft 484 kts 17°
2026-05-07 16:21 49.55504 20.27752 36947 ft 483 kts 18°
2026-05-07 16:21 49.61799 20.31077 36946 ft 482 kts 17°
2026-05-07 16:22 49.68103 20.34415 36948 ft 483 kts 17°
2026-05-07 16:22 49.74446 20.37763 36946 ft 484 kts 16°
2026-05-07 16:23 49.80969 20.40374 36947 ft 481 kts
2026-05-07 16:23 49.87510 20.42255 36934 ft 481 kts
2026-05-07 16:24 49.94068 20.44120 36933 ft 481 kts
2026-05-07 16:24 50.00598 20.46138 36933 ft 480 kts
2026-05-07 16:25 50.07130 20.48260 36929 ft 480 kts
2026-05-07 16:25 50.13619 20.50407 36858 ft 480 kts
2026-05-07 16:25 50.16827 20.51474 36478 ft 479 kts
2026-05-07 16:26 50.20123 20.52570 35938 ft 483 kts
2026-05-07 16:26 50.23418 20.53666 35235 ft 489 kts
2026-05-07 16:26 50.26733 20.54770 34558 ft 493 kts
2026-05-07 16:26 50.30068 20.55884 33897 ft 493 kts
2026-05-07 16:27 50.33413 20.57004 33303 ft 491 kts
2026-05-07 16:27 50.36754 20.58125 32725 ft 489 kts
2026-05-07 16:27 50.40031 20.59226 32151 ft 487 kts 10°
2026-05-07 16:27 50.43337 20.60338 31579 ft 484 kts 10°
2026-05-07 16:28 50.46619 20.61443 31003 ft 482 kts 10°
2026-05-07 16:28 50.49873 20.62539 30430 ft 480 kts 10°
2026-05-07 16:28 50.53106 20.63630 29857 ft 477 kts 10°
2026-05-07 16:28 50.56329 20.64718 29281 ft 475 kts 10°
2026-05-07 16:29 50.59484 20.65784 28717 ft 472 kts 11°
2026-05-07 16:29 50.62680 20.66867 28149 ft 469 kts 11°
2026-05-07 16:29 50.65852 20.67943 27581 ft 466 kts 11°
2026-05-07 16:29 50.69004 20.69013 27011 ft 463 kts 11°
2026-05-07 16:30 50.72130 20.70076 26444 ft 460 kts 12°
2026-05-07 16:30 50.75222 20.71128 25889 ft 457 kts 12°
2026-05-07 16:30 50.78365 20.72199 25319 ft 454 kts 12°
2026-05-07 16:30 50.81422 20.73243 24763 ft 451 kts 12°
2026-05-07 16:31 50.84463 20.74282 24200 ft 448 kts 12°
2026-05-07 16:31 50.87523 20.75330 23647 ft 445 kts 12°
2026-05-07 16:31 50.90553 20.76368 23101 ft 442 kts 12°
2026-05-07 16:31 50.93537 20.77391 22554 ft 439 kts 12°
2026-05-07 16:32 50.96498 20.78408 22006 ft 436 kts 12°
2026-05-07 16:32 50.99471 20.79431 21461 ft 433 kts 12°
2026-05-07 16:32 51.02423 20.80449 20921 ft 430 kts 12°
2026-05-07 16:32 51.05352 20.81459 20372 ft 427 kts 12°
2026-05-07 16:33 51.08214 20.82448 19836 ft 424 kts 12°
2026-05-07 16:33 51.11096 20.83445 19296 ft 420 kts 12°
2026-05-07 16:33 51.13938 20.84430 18766 ft 416 kts 12°
2026-05-07 16:33 51.16758 20.85408 18246 ft 408 kts 12°
2026-05-07 16:34 51.19481 20.86354 17747 ft 399 kts 12°
2026-05-07 16:34 51.22197 20.87299 17226 ft 391 kts 12°
2026-05-07 16:34 51.24832 20.88217 16736 ft 385 kts 11°
2026-05-07 16:34 51.27425 20.89120 16247 ft 382 kts 11°
2026-05-07 16:35 51.30024 20.90026 15748 ft 380 kts 11°
2026-05-07 16:35 51.32594 20.90922 15258 ft 378 kts 11°
2026-05-07 16:35 51.35191 20.91830 14750 ft 375 kts 11°
2026-05-07 16:35 51.37728 20.92718 14264 ft 372 kts 11°
2026-05-07 16:36 51.40229 20.93595 13799 ft 369 kts 11°
2026-05-07 16:36 51.42741 20.94477 13319 ft 363 kts 11°
2026-05-07 16:36 51.45197 20.95341 12839 ft 356 kts 11°
2026-05-07 16:36 51.47574 20.96177 12379 ft 350 kts 11°
2026-05-07 16:37 51.49960 20.97018 11904 ft 343 kts 11°
2026-05-07 16:37 51.52253 20.97826 11478 ft 337 kts 10°
2026-05-07 16:37 51.54532 20.98630 11044 ft 332 kts 10°
2026-05-07 16:37 51.56745 20.99410 10615 ft 326 kts 10°
2026-05-07 16:38 51.58931 21.00183 10173 ft 319 kts 10°
2026-05-07 16:38 51.61067 21.00939 9777 ft 309 kts 10°
2026-05-07 16:38 51.63131 21.01672 9528 ft 295 kts 10°
2026-05-07 16:38 51.65099 21.02372 9272 ft 284 kts 10°
2026-05-07 16:39 51.67012 21.03050 9027 ft 279 kts 10°
2026-05-07 16:39 51.68926 21.03724 8721 ft 281 kts
2026-05-07 16:39 51.70833 21.04399 8429 ft 275 kts 10°
2026-05-07 16:39 51.72654 21.05050 8180 ft 265 kts 10°
2026-05-07 16:40 51.74453 21.05692 7862 ft 259 kts
2026-05-07 16:40 51.76204 21.06315 7539 ft 254 kts
2026-05-07 16:40 51.77913 21.06923 7264 ft 247 kts
2026-05-07 16:40 51.79557 21.07510 7014 ft 239 kts
2026-05-07 16:41 51.81165 21.08085 6745 ft 234 kts
2026-05-07 16:41 51.82766 21.08655 6478 ft 235 kts
2026-05-07 16:41 51.84376 21.09227 6166 ft 236 kts
2026-05-07 16:41 51.85979 21.09800 5820 ft 237 kts
2026-05-07 16:42 51.87575 21.10373 5503 ft 233 kts 10°
2026-05-07 16:42 51.89147 21.10938 5187 ft 229 kts
2026-05-07 16:42 51.90700 21.11495 4865 ft 226 kts 10°
2026-05-07 16:42 51.92220 21.12040 4565 ft 223 kts 10°
2026-05-07 16:43 51.93736 21.12583 4339 ft 222 kts 10°
2026-05-07 16:43 51.95247 21.13125 4077 ft 222 kts 11°
2026-05-07 16:43 51.96767 21.13563 3797 ft 220 kts
2026-05-07 16:43 51.98205 21.13073 3552 ft 209 kts 329°
2026-05-07 16:44 51.99363 21.11751 3307 ft 200 kts 324°
2026-05-07 16:44 52.00538 21.10599 3072 ft 193 kts 333°
2026-05-07 16:44 52.01702 21.09627 2959 ft 178 kts 331°
2026-05-07 16:44 52.02732 21.08711 2968 ft 161 kts 332°
2026-05-07 16:45 52.03725 21.07861 2951 ft 163 kts 332°
2026-05-07 16:45 52.04712 21.07002 2766 ft 158 kts 332°
2026-05-07 16:45 52.05680 21.06167 2567 ft 159 kts 332°
2026-05-07 16:45 52.06648 21.05328 2342 ft 152 kts 333°
2026-05-07 16:46 52.07556 21.04542 2171 ft 150 kts 332°
2026-05-07 16:46 52.08476 21.03745 1939 ft 146 kts 332°
2026-05-07 16:46 52.09373 21.02965 1742 ft 146 kts 333°
2026-05-07 16:46 52.10263 21.02193 1549 ft 146 kts 333°
2026-05-07 16:47 52.11165 21.01414 1351 ft 145 kts 333°
2026-05-07 16:47 52.12053 21.00643 1156 ft 146 kts 331°
2026-05-07 16:47 52.12949 20.99866 962 ft 147 kts 332°
2026-05-07 16:47 52.13845 20.99088 764 ft 147 kts 332°
2026-05-07 16:48 52.14749 20.98299 568 ft 147 kts 331°
2026-05-07 16:48 52.15622 20.97537 851 ft 134 kts 332°
2026-05-07 16:48 52.16511 20.96782 880 ft 161 kts 332°
2026-05-07 16:48 52.17507 20.95920 1366 ft 168 kts 332°
2026-05-07 16:49 52.18591 20.94975 1684 ft 188 kts 332°
2026-05-07 16:49 52.19814 20.93901 1954 ft 213 kts 332°
2026-05-07 16:49 52.21183 20.92706 2392 ft 232 kts 333°
2026-05-07 16:49 52.22562 20.91203 2846 ft 250 kts 315°
2026-05-07 16:50 52.23455 20.88708 2998 ft 260 kts 286°
2026-05-07 16:50 52.23719 20.85799 3078 ft 255 kts 276°
2026-05-07 16:50 52.23843 20.82927 3460 ft 260 kts 272°
2026-05-07 16:50 52.23515 20.80034 3944 ft 262 kts 246°
2026-05-07 16:51 52.22478 20.77575 4472 ft 265 kts 230°
2026-05-07 16:51 52.21204 20.75417 4948 ft 266 kts 227°
2026-05-07 16:51 52.19865 20.73249 4997 ft 271 kts 227°
2026-05-07 16:51 52.18564 20.71137 4988 ft 264 kts 227°
2026-05-07 16:52 52.17254 20.69011 4992 ft 265 kts 227°
2026-05-07 16:52 52.15938 20.66876 4988 ft 266 kts 227°
2026-05-07 16:52 52.14527 20.64911 4982 ft 268 kts 212°
2026-05-07 16:52 52.12754 20.64008 4981 ft 273 kts 184°
2026-05-07 16:53 52.10892 20.64551 4978 ft 276 kts 156°
2026-05-07 16:53 52.09292 20.66297 4974 ft 279 kts 140°
2026-05-07 16:53 52.07875 20.68432 4978 ft 279 kts 137°
2026-05-07 16:53 52.06481 20.70618 4978 ft 278 kts 137°
2026-05-07 16:54 52.05071 20.72819 4983 ft 279 kts 137°
2026-05-07 16:54 52.03666 20.75003 4982 ft 278 kts 137°
2026-05-07 16:54 52.02264 20.77181 4980 ft 279 kts 137°
2026-05-07 16:54 52.00867 20.79352 4977 ft 276 kts 137°
2026-05-07 16:55 51.99506 20.81465 4980 ft 267 kts 137°
2026-05-07 16:55 51.98159 20.83562 4979 ft 267 kts 137°
2026-05-07 16:55 51.96823 20.85635 4981 ft 268 kts 137°
2026-05-07 16:55 51.95472 20.87729 4980 ft 268 kts 137°
2026-05-07 16:56 51.94114 20.89827 4977 ft 267 kts 137°
2026-05-07 16:56 51.92778 20.91887 4973 ft 268 kts 137°
2026-05-07 16:56 51.90320 20.96382 4971 ft 269 kts 112°
2026-05-07 16:57 51.89965 20.99317 4776 ft 265 kts 84°
2026-05-07 16:57 51.90364 21.02201 4544 ft 258 kts 69°
2026-05-07 16:57 51.90997 21.04899 4289 ft 255 kts 66°
2026-05-07 16:57 51.91635 21.07532 4037 ft 252 kts 66°
2026-05-07 16:58 51.92272 21.10178 3782 ft 249 kts 65°
2026-05-07 16:58 51.93195 21.12489 3516 ft 243 kts 39°
2026-05-07 16:58 51.94651 21.13763 3307 ft 234 kts 13°
2026-05-07 16:58 51.96217 21.13884 3167 ft 225 kts 345°
2026-05-07 16:59 51.97638 21.12938 3059 ft 216 kts 333°
2026-05-07 16:59 51.98972 21.11895 2969 ft 210 kts 336°
2026-05-07 16:59 52.00275 21.10860 2976 ft 207 kts 332°
2026-05-07 16:59 52.01501 21.09770 2975 ft 192 kts 332°
2026-05-07 17:00 52.02665 21.08778 2980 ft 191 kts 333°
2026-05-07 17:00 52.03800 21.07793 2941 ft 181 kts 332°
2026-05-07 17:00 52.04922 21.06821 2755 ft 179 kts 333°
2026-05-07 17:00 52.06002 21.05889 2503 ft 177 kts 333°
2026-05-07 17:01 52.07089 21.04944 2259 ft 171 kts 332°
2026-05-07 17:01 52.08093 21.04075 2020 ft 157 kts 333°
2026-05-07 17:01 52.09017 21.03274 1859 ft 143 kts 333°
2026-05-07 17:01 52.09914 21.02498 1623 ft 145 kts 333°
2026-05-07 17:02 52.10794 21.01734 1430 ft 145 kts 334°
2026-05-07 17:02 52.11694 21.00958 1234 ft 145 kts 333°
2026-05-07 17:02 52.12577 21.00192 1044 ft 145 kts 332°
2026-05-07 17:02 52.13470 20.99411 846 ft 146 kts 333°
2026-05-07 17:03 52.14359 20.98636 645 ft 143 kts 331°
2026-05-07 17:03 52.15222 20.97878 461 ft 137 kts 332°
2026-05-07 17:03 52.16042 20.97179 365 ft 119 kts 331°
2026-05-07 17:03 52.16575 20.96710 365 ft 57 kts 332°
2026-05-07 17:04 52.16786 20.96543 365 ft 20 kts 345°
2026-05-07 17:04 52.16907 20.96516 365 ft 15 kts 359°
2026-05-07 17:04 52.16981 20.96515 365 ft 7 kts
2026-05-07 17:04 52.17015 20.96516 365 ft 0 kts
2026-05-07 17:05 52.17016 20.96516 365 ft 0 kts
2026-05-07 17:05 52.17027 20.96517 365 ft 3 kts
2026-05-07 17:06 52.17061 20.96526 365 ft 6 kts 23°
2026-05-07 17:06 52.17099 20.96591 365 ft 9 kts 51°
2026-05-07 17:06 52.17165 20.96598 365 ft 11 kts 330°
2026-05-07 17:06 52.17247 20.96525 365 ft 14 kts 331°
2026-05-07 17:07 52.17342 20.96438 365 ft 15 kts 330°
2026-05-07 17:07 52.17426 20.96404 365 ft 11 kts 37°
2026-05-07 17:07 52.17467 20.96505 365 ft 9 kts 60°
2026-05-07 17:07 52.17508 20.96581 365 ft 8 kts 44°
2026-05-07 17:08 52.17534 20.96653 365 ft 6 kts 59°
2026-05-07 17:08 52.17565 20.96734 365 ft 10 kts 57°
2026-05-07 17:08 52.17614 20.96780 365 ft 7 kts 335°
2026-05-07 17:08 52.17657 20.96736 365 ft 6 kts 327°
2026-05-07 17:09 52.17691 20.96700 365 ft 2 kts 324°
2026-05-07 17:09 52.17695 20.96687 365 ft 1 kts 284°
2026-05-07 17:09 52.17689 20.96653 365 ft 3 kts 242°
2026-05-07 17:09 52.17680 20.96631 365 ft 0 kts 236°